658  
ASUS44 KSHV 200510  
RWRSHV  
 
WEATHER ROUNDUP FOR THE FOUR STATE AREA  
NATIONAL WEATHER SERVICE SHREVEPORT LA  
1200 AM CDT THU JUN 20 2019  
 
NOTE: "FAIR" INDICATES FEW OR NO CLOUDS BELOW 12000 FEET  
WITH NO SIGNIFICANT WEATHER AND/OR S TO VISIBILITY
.  
 
!LAZ001-LAZ014-TXZ097-200600  
SHREVEPORT...MONROE...TEXARKANA RADIOS  
 
CITY SKY/WX TMP DP RH WIND PRES REMARKS
 
SHREVEPORT TSTM 69 68 96 N23G32 29.82R VSB 1  
MONROE CLOUDY 80 71 74 SE5 29.81R  
NATCHITOCHES MOCLDY 80 75 86 N8 29.78F  
TEXARKANA LGT RAIN 72 66 81 W13 29.80  

 
 
!LAZ001-LAZ014-TXZ097-200600  
OTHER LOCATIONS...  
 
CITY SKY/WX TMP DP RH WIND PRES REMARKS
 
DOWNTOWN SHV TSTM 69 67 93 N14G31 29.83R VSB 3/4  
BOSSIER CITY TSTM 70 66 88 NW17 29.83R  
RUSTON N/A 79 74 84 S3 29.83R  
LITTLE ROCK CLOUDY 70 68 93 W8 29.74F  
EL DORADO TSTM 70 68 93 SW9 29.80R  
JACKSON N/A 79 71 76 S6 29.81S  
NEW ORLEANS N/A 81 74 79 S6 29.85F  
HOUSTON MOCLDY 82 78 88 S9 29.80R  
LUFKIN CLEAR 78 75 90 S7 29.79R  
TYLER TSTM 74 67 78 E10 29.81R  
DAL FT WORTH CLOUDY 85 75 72 NW13 29.69R  

 
 
!TXZ136-TXZ165-200600  
TYLER...LUFKIN RADIOS  
 
CITY SKY/WX TMP DP RH WIND PRES REMARKS
 
TYLER TSTM 74 67 78 E10 29.81R  
GILMER TSTM 67 66 96 N9 29.80F  
LONGVIEW HVY RAIN 69 68 96 NE7 29.82S  
LUFKIN CLEAR 78 75 90 S7 29.79R  

 
 
!TXZ136-TXZ165-200600  
OTHER LOCATIONS...  
 
CITY SKY/WX TMP DP RH WIND PRES REMARKS
 
NACOGDOCHES MOCLDY 80 77 90 S10 29.78R  
BEAUMONT N/A 83 77 82 S8 29.81R  
HOUSTON MOCLDY 82 78 88 S9 29.80R  
COLLEGE STN RAIN 72 68 87 N18G41 29.92R FOG  
AUSTIN MOCLDY 83 78 85 NE14 29.85R  
DAL FT WORTH CLOUDY 85 75 72 NW13 29.69R  
TEXARKANA LGT RAIN 72 66 81 W13 29.80  
SHREVEPORT TSTM 69 68 96 N23G32 29.82R VSB 1  
FORT POLK N/A 79 75 87 S10 29.79R  
LAKE CHARLES MOCLDY 84 77 79 S7 29.82R  

 
 
 
CLICK HERE TO GO TO PREVIOUS BULLETINS.

The Nexlab LA Page
The Nexlab TX Page
The Nexlab AR Page
The Nexlab OK Page Main Text Page